Cloud_Cover
5 3 4 4 5 2 1 0 27 5 43 100 100 100 100 90 100 100 100 100 100 100 80 100 100 100 100 100 100 100 99 97 100 100 77 81 88 60 19 99 92 5 58
3 5 40 98 10 5 17 6 0 10 30 100 94 100 100 100 100 100 100 100 100 100 100 100 100 100 100 100 100 100 100 100 100 100 83 67 94 47 41 35 10 22 100
0 3 54 53 10 5 5 5 5 17 57 97 94 100 100 100 100 100 100 100 100 100 100 100 100 100 100 100 100 100 100 100 100 100 100 100 100 100 100 74 91 100 100
0 5 5 5 54 6 5 28 23 5 5 100 100 100 100 100 100 100 100 100 100 100 100 100 100 100 100 100 100 100 100 100 100 100 100 100 100 100 100 100 100 100 100
5 5 5 6 8 67 92 36 6 5 25 100 100 100 100 100 100 100 100 100 100 100 100 100 100 100 100 100 100 100 100 100 100 100 100 100 100 100 100 100 100 100 100
7 10 55 88 100 57 48 82 72 96 100 100 100 100 100 100 100 100 100 100 100 100 100 100 100 100 100 100 100 100 100 100 100 100 100 100 100 100 100 100 100 100 100
76 73 90 96 100 100 100 100 100 100 100 100 100 100 100 100 100 100 100 100 100 100 100 100 100 100 100 100 100 100 100 100 100 100 100 100 100 100 100 100 100 100 100
76 92 82 100 97 100 100 100 100 100 100 100 100 100 100 100 100 100 100 100 100 100 100 100 100 100 100 100 100 100 100 100 100 100 100 100 100 100 100 100 100 100 100
67 64 81 100 98 100 100 100 100 100 100 100 100 100 100 100 100 100 100 100 100 100 100 100 100 100 100 100 100 100 100 100 100 100 100 100 100 100 100 100 100 100 99
100 100 100 100 100 100 100 100 100 100 100 100 100 100 100 100 100 100 100 100 100 100 100 100 100 100 100 100 100 100 100 100 100 100 100 100 100 100 100 100 100 100 100
100 100 100 100 100 100 100 100 100 100 100 100 100 100 100 100 100 100 100 100 100 100 100 100 100 100 100 100 100 100 100 100 100 100 100 100 100 100 100 100 100 100 100
100 100 100 100 86 100 100 100 100 100 100 100 100 100 100 100 100 100 100 100 100 100 100 100 100 100 100 100 100 100 100 100 100 100 100 100 100 100 100 99 100 81 91
100 100 100 100 100 100 100 100 100 100 100 100 100 100 100 100 100 100 100 100 100 100 100 100 100 100 100 100 100 100 100 100 100 100 100 100 100 100 100 100 66 90 92
100 90 93 100 100 100 100 100 100 100 100 100 100 100 100 100 100 100 100 100 100 100 100 100 100 100 100 100 100 100 100 100 99 100 100 100 100 100 100 100 100 24 5
100 93 94 100 100 100 97 100 100 100 100 100 100 100 100 100 100 100 100 100 100 100 100 100 100 100 100 100 100 100 100 100 96 95 94 74 86 94 78 17 5 5 5
100 100 100 97 100 100 100 100 100 100 100 100 100 100 100 100 100 100 100 100 100 100 100 100 100 100 100 100 100 100 100 100 96 84 72 78 53 26 39 21 5 77 6
100 99 92 91 100 100 100 100 100 100 100 100 100 100 100 100 100 100 100 100 100 100 100 100 100 100 100 100 100 100 100 96 70 49 72 56 77 97 74 96 94 6 5
100 100 99 100 99 100 100 100 100 100 100 100 100 100 100 100 100 100 100 100 100 100 100 100 100 100 100 100 100 92 90 58 84 79 63 82 100 92 92 59 17 5 6
100 100 100 100 100 100 100 100 100 100 100 100 100 100 100 100 100 100 100 100 100 100 100 100 100 100 98 93 81 84 87 94 100 100 99 100 100 91 49 5 5 5 9
100 100 100 100 100 100 100 100 100 100 100 100 100 100 100 100 100 100 100 100 100 100 100 100 94 84 86 85 90 100 100 100 100 100 100 100 100 71 32 6 7 62 97
100 100 100 100 100 100 100 100 100 100 100 100 100 100 100 100 100 100 100 100 100 100 100 100 100 100 100 100 100 100 100 100 100 100 100 100 100 74 6 53 98 98 62
100 100 100 100 100 100 100 100 100 100 100 100 100 100 100 100 100 100 100 100 100 100 100 100 100 100 100 100 100 100 100 100 100 100 100 100 84 38 30 94 98 100 100
100 100 100 100 100 100 100 100 100 100 100 100 100 100 100 100 100 100 100 100 92 72 64 98 98 87 83 100 100 100 100 100 100 100 100 100 93 59 100 99 100 94 71
100 100 100 100 100 100 100 100 100 100 100 100 100 100 100 100 100 100 100 97 74 38 12 5 5 45 75 80 83 96 100 100 100 100 100 100 100 100 90 100 100 96 97
100 100 100 100 100 100 71 31 41 57 6 5 5 5 5 5 5 5 5 5 5 5 5 5 6 62 70 64 72 100 100 100 100 100 100 100 100 100 99 94 96 100 100
100 99 96 100 100 100 100 100 93 32 5 5 5 5 5 5 5 5 5 5 5 5 5 5 5 7 70 79 98 100 100 100 100 100 100 100 100 100 100 100 98 75 57